Regional Weather Roundup
Issued by NWS Kansas City/Pleasant Hill, MO

Home | Current Version | Previous Version | Text Only | Print | Product List | Glossary On
Versions: 1 2 3 4 5 6 7 8 9 10 11 12 13 14 15 16 17 18 19 20 21 22 23 24 25 26 27 28 29 30 31 32 33 34 35 36 37 38 39 40 41 42 43 44 45 46 47 48 49 50
000
ASUS43 KEAX 230111
RWREAX

WEATHER ROUNDUP FOR EASTERN KANSAS AND NORTHWEST MISSOURI
NATIONAL WEATHER SERVICE KANSAS CITY/PLEASANT HILL MO
800 PM CDT MON SEP 22 2014

KSZ040-057-103>105-MOZ028-029-037-043-230200-
...KANSAS CITY METROPOLITAN AREA...

CITY           SKY/WX    TMP DP  RH WIND       PRES   REMARKS
K.C. INTL      MOCLDY    67  51  56 E9        30.22S
K.C. DOWNTOWN  MOCLDY    69  52  54 SE7       30.21S
LEES SUMMIT    PTCLDY    67  51  56 SE6       30.23S
OLATHE - IXD   PTCLDY    64  53  67 SE6       30.23S
OLATHE - OJC   PTCLDY    65  53  65 SE5       30.22S
LAWRENCE       PTCLDY    61  53  75 E3        30.22R

$$

MOZ001>008-011>017-020>025-030>033-038>040-044>046-053-054-230200-
...NORTHERN AND CENTRAL MISSOURI...

CITY           SKY/WX    TMP DP  RH WIND       PRES   REMARKS
ST. JOSEPH     PTCLDY    64  53  67 SE6       30.21S
MOSBY          MOCLDY    61  55  82 CALM      30.22S
WHITEMAN AFB   CLEAR     62  52  67 CALM      30.23R
CLINTON        CLEAR     61  57  88 CALM      30.24R
SEDALIA        CLEAR     65  52  62 CALM      30.24S
WARSAW         NOT AVBL
MARSHALL       PTCLDY    66  54  63 E5        30.25R
CHILLICOTHE      N/A     59  55  87 CALM      30.25R
MOBERLY        PTCLDY    59  50  72 CALM      30.26R
KIRKSVILLE     CLEAR     56  52  86 CALM      30.26R

$$

MOZ041-047>049-056>058-063>065-088>090-097-230200-
...EASTERN AND SOUTHERN MISSOURI...

CITY           SKY/WX    TMP DP  RH WIND       PRES   REMARKS
ST. LOUIS INTL PTCLDY    65  49  56 CALM      30.24R
SPIRIT OF STL  CLEAR     57  52  83 CALM      30.23R
COLUMBIA       PTCLDY    62  50  64 NE5       30.25R
JEFFERSON CITY CLEAR     62  50  64 CALM      30.23R
MEXICO         PTCLDY    57  54  88 CALM      30.25R
HANNIBAL       CLEAR     55  48  76 CALM      30.26R
ROLLA          CLEAR     57  47  69 CALM      30.23R
LEBANON        CLEAR     59  50  72 CALM      30.25R
OSAGE BEACH    CLEAR     57  50  77 NE3       30.23S
SPRINGFIELD    CLEAR     66  48  52 E5        30.23R
BRANSON        PTCLDY    63  50  63 SE5       30.24R
NEVADA         PTCLDY    59  55  88 E5        30.23S
JOPLIN         MOCLDY    62  55  77 E3        30.22S
WEST PLAINS    CLEAR     59  51  75 CALM      30.24R

$$

IAZ060-094-KSZ022-034>040-054-083-096-NEZ052-066-093-230200-
...KANSAS...SOUTHEAST NEBRASKA AND IOWA...

CITY           SKY/WX    TMP DP  RH WIND       PRES   REMARKS
TOPEKA         PTCLDY    64  53  67 E3        30.21R
MANHATTAN      PTCLDY    66  51  58 SE3       30.18F
EMPORIA        PTCLDY    63  53  70 SE7       30.20S
CHANUTE        PTCLDY    65  55  70 E6        30.21S
WICHITA        PTCLDY    70  47  43 S9        30.19R
OMAHA          MOCLDY    66  51  58 SE8       30.18S
LINCOLN        MOCLDY    66  48  52 SE8       30.17S
FALLS CITY     PTCLDY    66  52  60 S5        30.19S
LAMONI         PTCLDY    63  53  70 S5        30.23R
DES MOINES     PTCLDY    66  51  58 S6        30.22R

$$




USA.gov is the U.S. government's official web portal to all federal, state and local government web resources and services.